sat.trackr.live / text

‹ back to catalog

STARLINK-36694

NORAD 67653 · 2026-022F

PAYLOAD ACTIVE UNKNOWN

§ Identity

Operator
Country
US
Launch date
2026-02-02
Launch site
AFWTR
Launch vehicle
Mass (kg)
RCS (m²)

Purposes: comms

External: N2YO · Heavens-Above · Gunter

§ Orbital elements

Epoch: 2026-09-19T20:22:09.866784Z

Period
93.91 min
Inclination
97.2824°
Eccentricity
0.0002370
Mean motion
15.33436408 rev/d
Perigee alt
463.9 km
Apogee alt
467.2 km
Semi-major
6,843.7 km
B*
2.1967e-4
RAAN
294.3641°
Arg perigee
99.7792°
Mean anomaly
260.3719°
Rev number
3,532

§ Raw data

STARLINK-366941 67653U 26022F   26262.84872531  .00007022  00000+0  21967-3 0  99932 67653  97.2824 294.3641 0002370  99.7792 260.3719 15.33436408 35323

JSON: /api/v1/satellites/67653 · /tle

For live sub-satellite position, see the globe view (requires WebGL).

§ Visibility from observer

Set your observer location to see the next 7 days of passes ≥ 10°. The values pass through the URL so the page stays shareable.

No JS? Fill the form by hand. The geolocation button needs JavaScript.